contact:dominique.lefevre@mio.osupytheas.fr, maurice.libes@osupytheas.fr, didier.mallarino@osupytheas.fr
Project:EMSO http://www.emso-fr.org/EMSO-France
Depth: 2436.0 m
Title:EMSO Ligure Ouest : Data MII capteur MICROCAT
DateTime_Computer,Latitude,Longitude,Temperature,Conductivity,Pressure,DateTime_Instrument
DateTime_Computer,Latitude,Longitude,degC,S m-1,dbar,DateTime_Instrument
2020-11-30T00:02:53Z,42.805,6.029,13.2979,4.59983,2470.171,2020-11-30T02:03:50Z
2020-11-30T00:05:56Z,42.805,6.029,13.2982,4.59983,2470.156,2020-11-30T02:06:54Z
2020-11-30T00:08:59Z,42.805,6.029,13.2979,4.59983,2470.166,2020-11-30T02:09:57Z
2020-11-30T00:12:02Z,42.805,6.029,13.2981,4.59985,2470.18,2020-11-30T02:13:00Z
2020-11-30T00:15:05Z,42.805,6.029,13.2981,4.59984,2470.18,2020-11-30T02:16:03Z
2020-11-30T00:18:08Z,42.805,6.029,13.2979,4.59983,2470.18,2020-11-30T02:19:06Z
2020-11-30T00:21:11Z,42.805,6.029,13.2981,4.59983,2470.133,2020-11-30T02:22:09Z
2020-11-30T00:24:15Z,42.805,6.029,13.2982,4.59983,2470.194,2020-11-30T02:25:12Z
2020-11-30T00:27:18Z,42.805,6.029,13.2979,4.59983,2470.147,2020-11-30T02:28:15Z
2020-11-30T00:30:21Z,42.805,6.029,13.2982,4.59984,2470.18,2020-11-30T02:31:18Z
2020-11-30T00:33:24Z,42.805,6.029,13.2979,4.59984,2470.156,2020-11-30T02:34:22Z
2020-11-30T00:36:27Z,42.805,6.029,13.2979,4.59983,2470.156,2020-11-30T02:37:25Z
2020-11-30T00:39:30Z,42.805,6.029,13.2981,4.59983,2470.171,2020-11-30T02:40:28Z
2020-11-30T00:42:33Z,42.805,6.029,13.2980,4.59983,2470.18,2020-11-30T02:43:31Z
2020-11-30T00:45:36Z,42.805,6.029,13.2983,4.59983,2470.171,2020-11-30T02:46:34Z
2020-11-30T00:48:40Z,42.805,6.029,13.2978,4.59983,2470.156,2020-11-30T02:49:37Z
2020-11-30T00:51:43Z,42.805,6.029,13.2980,4.59984,2470.156,2020-11-30T02:52:40Z
2020-11-30T00:54:46Z,42.805,6.029,13.2978,4.59984,2470.18,2020-11-30T02:55:43Z
2020-11-30T00:57:49Z,42.805,6.029,13.2982,4.59983,2470.156,2020-11-30T02:58:47Z
2020-11-30T01:00:52Z,42.805,6.029,13.2983,4.59983,2470.18,2020-11-30T03:01:50Z
2020-11-30T01:03:55Z,42.805,6.029,13.2982,4.59985,2470.171,2020-11-30T03:04:53Z
2020-11-30T01:06:58Z,42.805,6.029,13.2982,4.59983,2470.156,2020-11-30T03:07:56Z
2020-11-30T01:10:01Z,42.805,6.029,13.2981,4.59985,2470.171,2020-11-30T03:10:59Z
2020-11-30T01:13:05Z,42.805,6.029,13.2980,4.59984,2470.156,2020-11-30T03:14:02Z
2020-11-30T01:16:08Z,42.805,6.029,13.2979,4.59983,2470.18,2020-11-30T03:17:05Z
2020-11-30T01:19:11Z,42.805,6.029,13.2982,4.59983,2470.156,2020-11-30T03:20:08Z
2020-11-30T01:22:14Z,42.805,6.029,13.2979,4.59984,2470.171,2020-11-30T03:23:12Z
2020-11-30T01:25:17Z,42.805,6.029,13.2985,4.59984,2470.171,2020-11-30T03:26:15Z
2020-11-30T01:28:20Z,42.805,6.029,13.2978,4.59983,2470.171,2020-11-30T03:29:18Z
2020-11-30T01:31:23Z,42.805,6.029,13.2978,4.59982,2470.18,2020-11-30T03:32:21Z
2020-11-30T01:34:26Z,42.805,6.029,13.2983,4.59983,2470.203,2020-11-30T03:35:24Z
2020-11-30T01:37:29Z,42.805,6.029,13.2980,4.59983,2470.156,2020-11-30T03:38:27Z
2020-11-30T01:40:33Z,42.805,6.029,13.2979,4.59983,2470.203,2020-11-30T03:41:30Z
2020-11-30T01:43:36Z,42.805,6.029,13.2979,4.59983,2470.147,2020-11-30T03:44:33Z
2020-11-30T01:46:39Z,42.805,6.029,13.2979,4.59983,2470.156,2020-11-30T03:47:37Z
2020-11-30T01:49:42Z,42.805,6.029,13.2981,4.59983,2470.156,2020-11-30T03:50:40Z
2020-11-30T01:52:45Z,42.805,6.029,13.2982,4.59983,2470.156,2020-11-30T03:53:43Z
2020-11-30T01:55:48Z,42.805,6.029,13.2980,4.59983,2470.171,2020-11-30T03:56:46Z
2020-11-30T01:58:51Z,42.805,6.029,13.2980,4.59984,2470.194,2020-11-30T03:59:49Z
2020-11-30T02:01:54Z,42.805,6.029,13.2982,4.59983,2470.18,2020-11-30T04:02:52Z
2020-11-30T02:04:58Z,42.805,6.029,13.2983,4.59983,2470.156,2020-11-30T04:05:55Z
2020-11-30T02:08:01Z,42.805,6.029,13.2979,4.59984,2470.156,2020-11-30T04:08:58Z
2020-11-30T02:11:04Z,42.805,6.029,13.2983,4.59984,2470.171,2020-11-30T04:12:02Z
2020-11-30T02:14:07Z,42.805,6.029,13.2982,4.59983,2470.171,2020-11-30T04:15:05Z
2020-11-30T02:17:10Z,42.805,6.029,13.2981,4.59984,2470.18,2020-11-30T04:18:08Z
2020-11-30T02:20:13Z,42.805,6.029,13.2983,4.59983,2470.203,2020-11-30T04:21:11Z
2020-11-30T02:23:16Z,42.805,6.029,13.2982,4.59985,2470.18,2020-11-30T04:24:14Z
2020-11-30T02:26:19Z,42.805,6.029,13.2983,4.59985,2470.18,2020-11-30T04:27:17Z
2020-11-30T02:29:23Z,42.805,6.029,13.2979,4.59983,2470.156,2020-11-30T04:30:20Z
2020-11-30T02:32:26Z,42.805,6.029,13.2982,4.59983,2470.156,2020-11-30T04:33:23Z
2020-11-30T02:35:29Z,42.805,6.029,13.2981,4.59984,2470.171,2020-11-30T04:36:26Z
2020-11-30T02:38:32Z,42.805,6.029,13.2981,4.59984,2470.217,2020-11-30T04:39:30Z
2020-11-30T02:41:35Z,42.805,6.029,13.2980,4.59985,2470.18,2020-11-30T04:42:33Z
2020-11-30T02:44:38Z,42.805,6.029,13.2981,4.59983,2470.203,2020-11-30T04:45:36Z
2020-11-30T02:47:41Z,42.805,6.029,13.2982,4.59983,2470.18,2020-11-30T04:48:39Z
2020-11-30T02:50:44Z,42.805,6.029,13.2979,4.59983,2470.18,2020-11-30T04:51:42Z
2020-11-30T02:53:48Z,42.805,6.029,13.2982,4.59984,2470.217,2020-11-30T04:54:45Z
2020-11-30T02:56:51Z,42.805,6.029,13.2981,4.59984,2470.227,2020-11-30T04:57:48Z
2020-11-30T02:59:54Z,42.805,6.029,13.2979,4.59983,2470.203,2020-11-30T05:00:51Z
2020-11-30T03:02:57Z,42.805,6.029,13.2979,4.59983,2470.18,2020-11-30T05:03:55Z
2020-11-30T03:06:00Z,42.805,6.029,13.2981,4.59984,2470.203,2020-11-30T05:06:58Z
2020-11-30T03:09:03Z,42.805,6.029,13.2979,4.59983,2470.18,2020-11-30T05:10:01Z
2020-11-30T03:12:06Z,42.805,6.029,13.2983,4.59983,2470.217,2020-11-30T05:13:04Z
2020-11-30T03:15:09Z,42.805,6.029,13.2982,4.59983,2470.227,2020-11-30T05:16:07Z
2020-11-30T03:18:13Z,42.805,6.029,13.2983,4.59983,2470.203,2020-11-30T05:19:10Z
2020-11-30T03:21:16Z,42.805,6.029,13.2980,4.59984,2470.227,2020-11-30T05:22:13Z
2020-11-30T03:24:19Z,42.805,6.029,13.2982,4.59983,2470.203,2020-11-30T05:25:16Z
2020-11-30T03:27:22Z,42.805,6.029,13.2981,4.59983,2470.227,2020-11-30T05:28:20Z
2020-11-30T03:30:25Z,42.805,6.029,13.2979,4.59983,2470.203,2020-11-30T05:31:23Z
2020-11-30T03:33:28Z,42.805,6.029,13.2984,4.59983,2470.203,2020-11-30T05:34:26Z
2020-11-30T03:36:31Z,42.805,6.029,13.2980,4.59983,2470.227,2020-11-30T05:37:29Z
2020-11-30T03:39:34Z,42.805,6.029,13.2978,4.59983,2470.227,2020-11-30T05:40:32Z
2020-11-30T03:42:38Z,42.805,6.029,13.2977,4.59983,2470.24,2020-11-30T05:43:35Z
2020-11-30T03:45:41Z,42.805,6.029,13.2982,4.59983,2470.203,2020-11-30T05:46:38Z
2020-11-30T03:48:44Z,42.805,6.029,13.2982,4.59983,2470.203,2020-11-30T05:49:41Z
2020-11-30T03:51:47Z,42.805,6.029,13.2980,4.59983,2470.217,2020-11-30T05:52:45Z
2020-11-30T03:54:50Z,42.805,6.029,13.2980,4.59984,2470.227,2020-11-30T05:55:48Z
2020-11-30T03:57:53Z,42.805,6.029,13.2981,4.59983,2470.25,2020-11-30T05:58:51Z
2020-11-30T04:00:56Z,42.805,6.029,13.2980,4.59983,2470.25,2020-11-30T06:01:54Z
2020-11-30T04:03:59Z,42.805,6.029,13.2983,4.59983,2470.273,2020-11-30T06:04:57Z
2020-11-30T04:07:02Z,42.805,6.029,13.2983,4.59983,2470.24,2020-11-30T06:08:00Z
2020-11-30T04:10:06Z,42.805,6.029,13.2979,4.59983,2470.227,2020-11-30T06:11:03Z
2020-11-30T04:13:09Z,42.805,6.029,13.2981,4.59983,2470.264,2020-11-30T06:14:06Z
2020-11-30T04:16:12Z,42.805,6.029,13.2982,4.59985,2470.273,2020-11-30T06:17:10Z
2020-11-30T04:19:15Z,42.805,6.029,13.2983,4.59984,2470.25,2020-11-30T06:20:13Z
2020-11-30T04:22:18Z,42.805,6.029,13.2981,4.59983,2470.25,2020-11-30T06:23:16Z
2020-11-30T04:25:21Z,42.805,6.029,13.2979,4.59983,2470.264,2020-11-30T06:26:19Z
2020-11-30T04:28:24Z,42.805,6.029,13.2982,4.59984,2470.25,2020-11-30T06:29:22Z
2020-11-30T04:31:27Z,42.805,6.029,13.2981,4.59983,2470.26,2020-11-30T06:32:25Z
2020-11-30T04:34:31Z,42.805,6.029,13.2980,4.59984,2470.287,2020-11-30T06:35:28Z
2020-11-30T04:37:34Z,42.805,6.029,13.2979,4.59983,2470.31,2020-11-30T06:38:31Z
2020-11-30T04:40:37Z,42.805,6.029,13.2982,4.59983,2470.287,2020-11-30T06:41:35Z
2020-11-30T04:43:40Z,42.805,6.029,13.2978,4.59983,2470.32,2020-11-30T06:44:38Z
2020-11-30T04:46:43Z,42.805,6.029,13.2977,4.59983,2470.31,2020-11-30T06:47:41Z
2020-11-30T04:49:46Z,42.805,6.029,13.2983,4.59984,2470.287,2020-11-30T06:50:44Z
2020-11-30T04:52:49Z,42.805,6.029,13.2980,4.59984,2470.287,2020-11-30T06:53:47Z
2020-11-30T04:55:52Z,42.805,6.029,13.2979,4.59983,2470.31,2020-11-30T06:56:50Z
2020-11-30T04:58:56Z,42.805,6.029,13.2978,4.59983,2470.334,2020-11-30T06:59:53Z
2020-11-30T05:01:59Z,42.805,6.029,13.2979,4.59983,2470.297,2020-11-30T07:02:56Z
2020-11-30T05:05:02Z,42.805,6.029,13.2982,4.59983,2470.297,2020-11-30T07:05:59Z
2020-11-30T05:08:05Z,42.805,6.029,13.2975,4.59983,2470.273,2020-11-30T07:09:03Z
2020-11-30T05:11:08Z,42.805,6.029,13.2979,4.59983,2470.297,2020-11-30T07:12:06Z
2020-11-30T05:14:11Z,42.805,6.029,13.2982,4.59983,2470.334,2020-11-30T07:15:09Z
2020-11-30T05:17:14Z,42.805,6.029,13.2979,4.59983,2470.334,2020-11-30T07:18:12Z
2020-11-30T05:20:17Z,42.805,6.029,13.2978,4.59983,2470.334,2020-11-30T07:21:15Z
2020-11-30T05:23:21Z,42.805,6.029,13.2983,4.59983,2470.31,2020-11-30T07:24:18Z
2020-11-30T05:26:24Z,42.805,6.029,13.2982,4.59985,2470.31,2020-11-30T07:27:21Z
2020-11-30T05:29:27Z,42.805,6.029,13.2979,4.59983,2470.32,2020-11-30T07:30:24Z
2020-11-30T05:32:30Z,42.805,6.029,13.2980,4.59984,2470.32,2020-11-30T07:33:28Z
2020-11-30T05:35:33Z,42.805,6.029,13.2981,4.59984,2470.32,2020-11-30T07:36:31Z
2020-11-30T05:38:36Z,42.805,6.029,13.2982,4.59984,2470.357,2020-11-30T07:39:34Z
2020-11-30T05:41:39Z,42.805,6.029,13.2978,4.59983,2470.357,2020-11-30T07:42:37Z
2020-11-30T05:44:42Z,42.805,6.029,13.2982,4.59983,2470.343,2020-11-30T07:45:40Z
2020-11-30T05:47:46Z,42.805,6.029,13.2981,4.59984,2470.343,2020-11-30T07:48:43Z
2020-11-30T05:50:49Z,42.805,6.029,13.2979,4.59983,2470.32,2020-11-30T07:51:46Z
2020-11-30T05:53:52Z,42.805,6.029,13.2983,4.59984,2470.334,2020-11-30T07:54:49Z
2020-11-30T05:56:55Z,42.805,6.029,13.2979,4.59984,2470.366,2020-11-30T07:57:53Z
2020-11-30T05:59:58Z,42.805,6.029,13.2979,4.59983,2470.357,2020-11-30T08:00:56Z
2020-11-30T06:03:01Z,42.805,6.029,13.2978,4.59985,2470.343,2020-11-30T08:03:59Z
2020-11-30T06:06:04Z,42.805,6.029,13.2983,4.59985,2470.32,2020-11-30T08:07:02Z
2020-11-30T06:09:07Z,42.805,6.029,13.2984,4.59984,2470.366,2020-11-30T08:10:05Z
2020-11-30T06:12:11Z,42.805,6.029,13.2978,4.59986,2470.366,2020-11-30T08:13:08Z
2020-11-30T06:15:14Z,42.805,6.029,13.2977,4.59983,2470.366,2020-11-30T08:16:11Z
2020-11-30T06:18:17Z,42.805,6.029,13.2978,4.59983,2470.38,2020-11-30T08:19:14Z
2020-11-30T06:21:20Z,42.805,6.029,13.2979,4.59984,2470.357,2020-11-30T08:22:18Z
2020-11-30T06:24:23Z,42.805,6.029,13.2982,4.59983,2470.38,2020-11-30T08:25:21Z
2020-11-30T06:27:26Z,42.805,6.029,13.2983,4.59983,2470.334,2020-11-30T08:28:24Z
2020-11-30T06:30:29Z,42.805,6.029,13.2978,4.59984,2470.38,2020-11-30T08:31:27Z
2020-11-30T06:33:32Z,42.805,6.029,13.2978,4.59984,2470.343,2020-11-30T08:34:30Z
2020-11-30T06:36:35Z,42.805,6.029,13.2981,4.59983,2470.343,2020-11-30T08:37:33Z
2020-11-30T06:39:39Z,42.805,6.029,13.2980,4.59984,2470.39,2020-11-30T08:40:36Z
2020-11-30T06:42:42Z,42.805,6.029,13.2980,4.59984,2470.366,2020-11-30T08:43:39Z
2020-11-30T06:45:45Z,42.805,6.029,13.2982,4.59984,2470.357,2020-11-30T08:46:43Z
2020-11-30T06:48:48Z,42.805,6.029,13.2979,4.59984,2470.366,2020-11-30T08:49:46Z
2020-11-30T06:51:51Z,42.805,6.029,13.2983,4.59984,2470.357,2020-11-30T08:52:49Z
2020-11-30T06:54:54Z,42.805,6.029,13.2983,4.59984,2470.38,2020-11-30T08:55:52Z
2020-11-30T06:57:57Z,42.805,6.029,13.2981,4.59984,2470.357,2020-11-30T08:58:55Z
2020-11-30T07:01:01Z,42.805,6.029,13.2982,4.59984,2470.413,2020-11-30T09:01:58Z
2020-11-30T07:04:04Z,42.805,6.029,13.2978,4.59984,2470.343,2020-11-30T09:05:01Z
2020-11-30T07:07:07Z,42.805,6.029,13.2981,4.59986,2470.413,2020-11-30T09:08:04Z
2020-11-30T07:10:10Z,42.805,6.029,13.2982,4.59986,2470.366,2020-11-30T09:11:08Z
2020-11-30T07:13:13Z,42.805,6.029,13.2978,4.59984,2470.404,2020-11-30T09:14:11Z
2020-11-30T07:16:16Z,42.805,6.029,13.2978,4.59984,2470.366,2020-11-30T09:17:14Z
2020-11-30T07:19:19Z,42.805,6.029,13.2983,4.59985,2470.39,2020-11-30T09:20:17Z
2020-11-30T07:22:22Z,42.805,6.029,13.2978,4.59984,2470.39,2020-11-30T09:23:20Z
2020-11-30T07:25:25Z,42.805,6.029,13.2981,4.59985,2470.404,2020-11-30T09:26:23Z
2020-11-30T07:28:29Z,42.805,6.029,13.2979,4.59984,2470.39,2020-11-30T09:29:26Z
2020-11-30T07:31:32Z,42.805,6.029,13.2985,4.59985,2470.39,2020-11-30T09:32:29Z
2020-11-30T07:34:35Z,42.805,6.029,13.2983,4.59985,2470.366,2020-11-30T09:35:33Z
2020-11-30T07:37:38Z,42.805,6.029,13.2981,4.59983,2470.39,2020-11-30T09:38:36Z
2020-11-30T07:40:41Z,42.805,6.029,13.2982,4.59984,2470.366,2020-11-30T09:41:39Z
2020-11-30T07:43:44Z,42.805,6.029,13.2979,4.59985,2470.413,2020-11-30T09:44:42Z
2020-11-30T07:46:47Z,42.805,6.029,13.2982,4.59984,2470.366,2020-11-30T09:47:45Z
2020-11-30T07:49:50Z,42.805,6.029,13.2983,4.59983,2470.39,2020-11-30T09:50:48Z
2020-11-30T07:52:54Z,42.805,6.029,13.2981,4.59986,2470.343,2020-11-30T09:53:51Z
2020-11-30T07:55:57Z,42.805,6.029,13.2979,4.59985,2470.39,2020-11-30T09:56:54Z
2020-11-30T07:59:00Z,42.805,6.029,13.2981,4.59986,2470.404,2020-11-30T09:59:58Z
2020-11-30T08:02:03Z,42.805,6.029,13.2982,4.59985,2470.343,2020-11-30T10:03:01Z
2020-11-30T08:05:06Z,42.805,6.029,13.2978,4.59985,2470.366,2020-11-30T10:06:04Z
2020-11-30T08:08:09Z,42.805,6.029,13.2979,4.59984,2470.343,2020-11-30T10:09:07Z
2020-11-30T08:11:12Z,42.805,6.029,13.2985,4.59984,2470.343,2020-11-30T10:12:10Z
2020-11-30T08:14:15Z,42.805,6.029,13.2981,4.59985,2470.366,2020-11-30T10:15:13Z
2020-11-30T08:17:19Z,42.805,6.029,13.2983,4.59985,2470.357,2020-11-30T10:18:16Z
2020-11-30T08:20:22Z,42.805,6.029,13.2982,4.59985,2470.38,2020-11-30T10:21:19Z
2020-11-30T08:23:25Z,42.805,6.029,13.2978,4.59985,2470.39,2020-11-30T10:24:23Z
2020-11-30T08:26:28Z,42.805,6.029,13.2980,4.59985,2470.39,2020-11-30T10:27:26Z
2020-11-30T08:29:31Z,42.805,6.029,13.2982,4.59985,2470.39,2020-11-30T10:30:29Z
2020-11-30T08:32:34Z,42.805,6.029,13.2982,4.59986,2470.366,2020-11-30T10:33:32Z
2020-11-30T08:35:37Z,42.805,6.029,13.2978,4.59984,2470.366,2020-11-30T10:36:35Z
2020-11-30T08:38:40Z,42.805,6.029,13.2979,4.59984,2470.366,2020-11-30T10:39:38Z
2020-11-30T08:41:44Z,42.805,6.029,13.2983,4.59984,2470.366,2020-11-30T10:42:41Z
2020-11-30T08:44:47Z,42.805,6.029,13.2982,4.59984,2470.39,2020-11-30T10:45:44Z
2020-11-30T08:47:51Z,42.805,6.029,13.2979,4.59985,2470.33,2020-11-30T10:48:48Z
2020-11-30T08:50:54Z,42.805,6.029,13.2982,4.59985,2470.39,2020-11-30T10:51:51Z
2020-11-30T08:53:57Z,42.805,6.029,13.2980,4.59985,2470.343,2020-11-30T10:54:55Z
2020-11-30T08:57:00Z,42.805,6.029,13.2981,4.59985,2470.343,2020-11-30T10:57:58Z
2020-11-30T09:00:03Z,42.805,6.029,13.2982,4.59984,2470.357,2020-11-30T11:01:01Z
2020-11-30T09:03:06Z,42.805,6.029,13.2981,4.59986,2470.357,2020-11-30T11:04:04Z
2020-11-30T09:06:09Z,42.805,6.029,13.2982,4.59986,2470.343,2020-11-30T11:07:07Z
2020-11-30T09:09:12Z,42.805,6.029,13.2979,4.59984,2470.343,2020-11-30T11:10:10Z
2020-11-30T09:12:16Z,42.805,6.029,13.2980,4.59985,2470.366,2020-11-30T11:13:13Z
2020-11-30T09:15:19Z,42.805,6.029,13.2982,4.59985,2470.343,2020-11-30T11:16:16Z
2020-11-30T09:18:22Z,42.805,6.029,13.2979,4.59985,2470.357,2020-11-30T11:19:20Z
2020-11-30T09:21:25Z,42.805,6.029,13.2983,4.59986,2470.343,2020-11-30T11:22:23Z
2020-11-30T09:24:28Z,42.805,6.029,13.2980,4.59986,2470.366,2020-11-30T11:25:26Z
2020-11-30T09:27:31Z,42.805,6.029,13.2982,4.59985,2470.32,2020-11-30T11:28:29Z
2020-11-30T09:30:34Z,42.805,6.029,13.2981,4.59985,2470.343,2020-11-30T11:31:32Z
2020-11-30T09:33:37Z,42.805,6.029,13.2982,4.59986,2470.343,2020-11-30T11:34:35Z
2020-11-30T09:36:41Z,42.805,6.029,13.2984,4.59984,2470.343,2020-11-30T11:37:38Z
2020-11-30T09:39:44Z,42.805,6.029,13.2983,4.59984,2470.343,2020-11-30T11:40:41Z
2020-11-30T09:42:47Z,42.805,6.029,13.2980,4.59984,2470.357,2020-11-30T11:43:45Z
2020-11-30T09:45:50Z,42.805,6.029,13.2979,4.59984,2470.334,2020-11-30T11:46:48Z
2020-11-30T09:48:53Z,42.805,6.029,13.2983,4.59985,2470.297,2020-11-30T11:49:51Z
2020-11-30T09:51:56Z,42.805,6.029,13.2979,4.59986,2470.357,2020-11-30T11:52:54Z
2020-11-30T09:54:59Z,42.805,6.029,13.2980,4.59986,2470.32,2020-11-30T11:55:57Z
2020-11-30T09:58:02Z,42.805,6.029,13.2982,4.59986,2470.343,2020-11-30T11:59:00Z
2020-11-30T10:01:06Z,42.805,6.029,13.2983,4.59983,2470.357,2020-11-30T12:02:03Z
2020-11-30T10:04:09Z,42.805,6.029,13.2983,4.59984,2470.32,2020-11-30T12:05:06Z
2020-11-30T10:07:12Z,42.805,6.029,13.2979,4.59984,2470.334,2020-11-30T12:08:10Z
2020-11-30T10:10:15Z,42.805,6.029,13.2982,4.59985,2470.297,2020-11-30T12:11:13Z
2020-11-30T10:13:18Z,42.805,6.029,13.2979,4.59985,2470.32,2020-11-30T12:14:16Z
2020-11-30T10:16:21Z,42.805,6.029,13.2985,4.59984,2470.343,2020-11-30T12:17:19Z
2020-11-30T10:19:24Z,42.805,6.029,13.2979,4.59985,2470.334,2020-11-30T12:20:22Z
2020-11-30T10:22:27Z,42.805,6.029,13.2980,4.59984,2470.334,2020-11-30T12:23:25Z
2020-11-30T10:25:31Z,42.805,6.029,13.2980,4.59985,2470.297,2020-11-30T12:26:28Z
2020-11-30T10:28:34Z,42.805,6.029,13.2982,4.59984,2470.334,2020-11-30T12:29:31Z
2020-11-30T10:31:37Z,42.805,6.029,13.2978,4.59984,2470.31,2020-11-30T12:32:35Z
2020-11-30T10:34:40Z,42.805,6.029,13.2977,4.59983,2470.334,2020-11-30T12:35:38Z
2020-11-30T10:37:43Z,42.805,6.029,13.2981,4.59983,2470.31,2020-11-30T12:38:41Z
2020-11-30T10:40:46Z,42.805,6.029,13.2982,4.59984,2470.297,2020-11-30T12:41:44Z
2020-11-30T10:43:49Z,42.805,6.029,13.2980,4.59985,2470.32,2020-11-30T12:44:47Z
2020-11-30T10:46:52Z,42.805,6.029,13.2977,4.59985,2470.297,2020-11-30T12:47:50Z
2020-11-30T10:49:56Z,42.805,6.029,13.2979,4.59986,2470.297,2020-11-30T12:50:53Z
2020-11-30T10:52:59Z,42.805,6.029,13.2979,4.59985,2470.32,2020-11-30T12:53:56Z
2020-11-30T10:56:02Z,42.805,6.029,13.2982,4.59984,2470.287,2020-11-30T12:57:00Z
2020-11-30T10:59:05Z,42.805,6.029,13.2979,4.59985,2470.273,2020-11-30T13:00:03Z
2020-11-30T11:02:08Z,42.805,6.029,13.2979,4.59984,2470.297,2020-11-30T13:03:06Z
2020-11-30T11:05:11Z,42.805,6.029,13.2982,4.59984,2470.264,2020-11-30T13:06:09Z
2020-11-30T11:08:14Z,42.805,6.029,13.2983,4.59984,2470.264,2020-11-30T13:09:12Z
2020-11-30T11:11:17Z,42.805,6.029,13.2982,4.59985,2470.297,2020-11-30T13:12:15Z
2020-11-30T11:14:21Z,42.805,6.029,13.2983,4.59983,2470.273,2020-11-30T13:15:18Z
2020-11-30T11:17:24Z,42.805,6.029,13.2979,4.59985,2470.31,2020-11-30T13:18:21Z
2020-11-30T11:20:27Z,42.805,6.029,13.2984,4.59984,2470.297,2020-11-30T13:21:25Z
2020-11-30T11:23:30Z,42.805,6.029,13.2981,4.59984,2470.31,2020-11-30T13:24:28Z
2020-11-30T11:26:33Z,42.805,6.029,13.2983,4.59983,2470.31,2020-11-30T13:27:31Z
2020-11-30T11:29:36Z,42.805,6.029,13.2980,4.59985,2470.287,2020-11-30T13:30:34Z
2020-11-30T11:32:39Z,42.805,6.029,13.2978,4.59984,2470.264,2020-11-30T13:33:37Z
2020-11-30T11:35:42Z,42.805,6.029,13.2985,4.59984,2470.264,2020-11-30T13:36:40Z
2020-11-30T11:38:46Z,42.805,6.029,13.2981,4.59984,2470.287,2020-11-30T13:39:43Z
2020-11-30T11:41:49Z,42.805,6.029,13.2980,4.59986,2470.25,2020-11-30T13:42:46Z
2020-11-30T11:44:52Z,42.805,6.029,13.2980,4.59985,2470.227,2020-11-30T13:45:50Z
2020-11-30T11:47:55Z,42.805,6.029,13.2983,4.59984,2470.25,2020-11-30T13:48:53Z
2020-11-30T11:50:58Z,42.805,6.029,13.2986,4.59983,2470.25,2020-11-30T13:51:56Z
2020-11-30T11:54:01Z,42.805,6.029,13.2979,4.59985,2470.25,2020-11-30T13:54:59Z
2020-11-30T11:57:04Z,42.805,6.029,13.2979,4.59985,2470.25,2020-11-30T13:58:02Z
2020-11-30T12:00:07Z,42.805,6.029,13.2978,4.59984,2470.264,2020-11-30T14:01:05Z
2020-11-30T12:03:11Z,42.805,6.029,13.2979,4.59985,2470.264,2020-11-30T14:04:08Z
2020-11-30T12:06:14Z,42.805,6.029,13.2981,4.59986,2470.264,2020-11-30T14:07:11Z
2020-11-30T12:09:17Z,42.805,6.029,13.2982,4.59983,2470.264,2020-11-30T14:10:15Z
2020-11-30T12:12:20Z,42.805,6.029,13.2981,4.59985,2470.227,2020-11-30T14:13:18Z
2020-11-30T12:15:23Z,42.805,6.029,13.2983,4.59984,2470.25,2020-11-30T14:16:21Z
2020-11-30T12:18:26Z,42.805,6.029,13.2979,4.59985,2470.227,2020-11-30T14:19:24Z
2020-11-30T12:21:29Z,42.805,6.029,13.2979,4.59984,2470.227,2020-11-30T14:22:27Z
2020-11-30T12:24:33Z,42.805,6.029,13.2980,4.59983,2470.273,2020-11-30T14:25:30Z
2020-11-30T12:27:36Z,42.805,6.029,13.2984,4.59984,2470.24,2020-11-30T14:28:33Z
2020-11-30T12:30:39Z,42.805,6.029,13.2977,4.59984,2470.25,2020-11-30T14:31:37Z
2020-11-30T12:33:42Z,42.805,6.029,13.2981,4.59984,2470.264,2020-11-30T14:34:40Z
2020-11-30T12:36:45Z,42.805,6.029,13.2981,4.59984,2470.264,2020-11-30T14:37:43Z
2020-11-30T12:39:48Z,42.805,6.029,13.2982,4.59983,2470.24,2020-11-30T14:40:46Z
2020-11-30T12:42:51Z,42.805,6.029,13.2980,4.59986,2470.24,2020-11-30T14:43:49Z
2020-11-30T12:45:54Z,42.805,6.029,13.2980,4.59984,2470.25,2020-11-30T14:46:52Z
2020-11-30T12:48:58Z,42.805,6.029,13.2982,4.59984,2470.227,2020-11-30T14:49:55Z
2020-11-30T12:52:01Z,42.805,6.029,13.2977,4.59984,2470.264,2020-11-30T14:52:58Z
2020-11-30T12:55:04Z,42.805,6.029,13.2982,4.59985,2470.24,2020-11-30T14:56:02Z
2020-11-30T12:58:07Z,42.805,6.029,13.2982,4.59986,2470.25,2020-11-30T14:59:05Z
2020-11-30T13:01:10Z,42.805,6.029,13.2984,4.59985,2470.217,2020-11-30T15:02:08Z
2020-11-30T13:04:13Z,42.805,6.029,13.2983,4.59984,2470.25,2020-11-30T15:05:11Z
2020-11-30T13:07:16Z,42.805,6.029,13.2982,4.59984,2470.24,2020-11-30T15:08:14Z
2020-11-30T13:10:19Z,42.805,6.029,13.2983,4.59985,2470.227,2020-11-30T15:11:17Z
2020-11-30T13:13:23Z,42.805,6.029,13.2979,4.59983,2470.203,2020-11-30T15:14:20Z
2020-11-30T13:16:26Z,42.805,6.029,13.2978,4.59985,2470.203,2020-11-30T15:17:23Z
2020-11-30T13:19:29Z,42.805,6.029,13.2982,4.59985,2470.203,2020-11-30T15:20:27Z
2020-11-30T13:22:32Z,42.805,6.029,13.2976,4.59985,2470.24,2020-11-30T15:23:30Z
2020-11-30T13:25:35Z,42.805,6.029,13.2981,4.59985,2470.203,2020-11-30T15:26:33Z
2020-11-30T13:28:38Z,42.805,6.029,13.2981,4.59985,2470.227,2020-11-30T15:29:36Z
2020-11-30T13:31:41Z,42.805,6.029,13.2982,4.59984,2470.25,2020-11-30T15:32:39Z
2020-11-30T13:34:44Z,42.805,6.029,13.2979,4.59985,2470.24,2020-11-30T15:35:42Z
2020-11-30T13:37:48Z,42.805,6.029,13.2982,4.59985,2470.203,2020-11-30T15:38:45Z
2020-11-30T13:40:51Z,42.805,6.029,13.2981,4.59984,2470.227,2020-11-30T15:41:48Z
2020-11-30T13:43:54Z,42.805,6.029,13.2982,4.59984,2470.24,2020-11-30T15:44:52Z
2020-11-30T13:46:57Z,42.805,6.029,13.2980,4.59986,2470.203,2020-11-30T15:47:55Z
2020-11-30T13:50:00Z,42.805,6.029,13.2977,4.59984,2470.227,2020-11-30T15:50:58Z
2020-11-30T13:53:03Z,42.805,6.029,13.2982,4.59985,2470.227,2020-11-30T15:54:01Z
2020-11-30T13:56:06Z,42.805,6.029,13.2980,4.59984,2470.25,2020-11-30T15:57:04Z
2020-11-30T13:59:09Z,42.805,6.029,13.2983,4.59984,2470.227,2020-11-30T16:00:07Z
2020-11-30T14:02:13Z,42.805,6.029,13.2983,4.59985,2470.203,2020-11-30T16:03:10Z
2020-11-30T14:05:16Z,42.805,6.029,13.2981,4.59985,2470.203,2020-11-30T16:06:13Z
2020-11-30T14:08:19Z,42.805,6.029,13.2983,4.59986,2470.227,2020-11-30T16:09:17Z
2020-11-30T14:11:22Z,42.805,6.029,13.2982,4.59985,2470.227,2020-11-30T16:12:20Z
2020-11-30T14:14:25Z,42.805,6.029,13.2982,4.59986,2470.227,2020-11-30T16:15:23Z
2020-11-30T14:17:28Z,42.805,6.029,13.2979,4.59985,2470.227,2020-11-30T16:18:26Z
2020-11-30T14:20:31Z,42.805,6.029,13.2982,4.59984,2470.24,2020-11-30T16:21:29Z
2020-11-30T14:23:34Z,42.805,6.029,13.2983,4.59984,2470.227,2020-11-30T16:24:32Z
2020-11-30T14:26:38Z,42.805,6.029,13.2984,4.59986,2470.194,2020-11-30T16:27:35Z
2020-11-30T14:29:41Z,42.805,6.029,13.2982,4.59985,2470.25,2020-11-30T16:30:38Z
2020-11-30T14:32:44Z,42.805,6.029,13.2985,4.59985,2470.24,2020-11-30T16:33:42Z
2020-11-30T14:35:47Z,42.805,6.029,13.2983,4.59984,2470.227,2020-11-30T16:36:45Z
2020-11-30T14:38:50Z,42.805,6.029,13.2982,4.59986,2470.203,2020-11-30T16:39:48Z
2020-11-30T14:41:53Z,42.805,6.029,13.2982,4.59985,2470.227,2020-11-30T16:42:51Z
2020-11-30T14:44:56Z,42.805,6.029,13.2983,4.59986,2470.203,2020-11-30T16:45:54Z
2020-11-30T14:48:00Z,42.805,6.029,13.2982,4.59985,2470.25,2020-11-30T16:48:57Z
2020-11-30T14:51:03Z,42.805,6.029,13.2979,4.59985,2470.25,2020-11-30T16:52:00Z
2020-11-30T14:54:06Z,42.805,6.029,13.2983,4.59986,2470.264,2020-11-30T16:55:04Z
2020-11-30T14:57:09Z,42.805,6.029,13.2981,4.59986,2470.227,2020-11-30T16:58:07Z
2020-11-30T15:00:12Z,42.805,6.029,13.2982,4.59984,2470.25,2020-11-30T17:01:10Z
2020-11-30T15:03:15Z,42.805,6.029,13.2984,4.59984,2470.227,2020-11-30T17:04:13Z